| time (UTC) | temp F | wind direction | speed MPH | gust MPH | rain 1hr in | rain 24hr in | rain mn in | humidity % | barometer mb |
| 20260901161554 | 62 | 182 | 1.0 | 4.0 | 0.00 | 0.00 | 0.00 | 94 | 989.3 |
| 20260901161051 | 62 | 182 | 1.0 | 4.0 | 0.00 | 0.00 | 0.00 | 94 | 989.3 |
| 20260901160549 | 61 | 182 | 1.0 | 4.0 | 0.00 | 0.00 | 0.00 | 95 | 989.3 |
| 20260901160106 | 61 | 182 | 1.0 | 4.0 | 0.00 | 0.00 | 0.00 | 94 | 989.3 |
| 20260901155546 | 61 | 182 | 1.0 | 4.0 | 0.00 | 0.00 | 0.00 | 95 | 989.4 |
| 20260901155045 | 60 | 182 | 1.0 | 5.0 | 0.00 | 0.00 | 0.00 | 94 | 989.3 |
| 20260901154543 | 60 | 183 | 2.0 | 5.0 | 0.00 | 0.00 | 0.00 | 93 | 989.3 |
| 20260901154041 | 60 | 184 | 3.0 | 6.0 | 0.00 | 0.00 | 0.00 | 93 | 989.4 |
| 20260901153540 | 59 | 193 | 3.0 | 6.0 | 0.00 | 0.00 | 0.00 | 93 | 989.4 |
| 20260901153041 | 59 | 192 | 2.0 | 5.0 | 0.00 | 0.00 | 0.00 | 93 | 989.4 |
| 20260901152539 | 59 | 192 | 3.0 | 5.0 | 0.00 | 0.00 | 0.00 | 92 | 989.2 |
| 20260901152039 | 59 | 192 | 2.0 | 5.0 | 0.00 | 0.00 | 0.00 | 91 | 989.3 |
| 20260901151542 | 60 | 192 | 1.0 | 3.0 | 0.00 | 0.00 | 0.00 | 90 | 989.3 |
| 20260901151037 | 60 | 192 | 0.0 | 3.0 | 0.00 | 0.00 | 0.00 | 90 | 989.2 |
| 20260901150534 | 60 | 192 | 0.0 | 1.0 | 0.00 | 0.00 | 0.00 | 91 | 989.1 |
| 20260901150040 | 59 | 192 | 0.0 | 1.0 | 0.00 | 0.00 | 0.00 | 91 | 989.0 |
| 20260901145532 | 59 | 192 | 0.0 | 2.0 | 0.00 | 0.00 | 0.00 | 92 | 989.0 |
| 20260901145032 | 58 | 192 | 0.0 | 2.0 | 0.00 | 0.00 | 0.00 | 93 | 988.9 |
| 20260901144539 | 58 | 192 | 0.0 | 2.0 | 0.00 | 0.00 | 0.00 | 93 | 988.9 |
| 20260901144030 | 57 | 192 | 0.0 | 3.0 | 0.00 | 0.00 | 0.00 | 93 | 988.9 |
| 20260901143531 | 57 | 192 | 0.0 | 3.0 | 0.00 | 0.00 | 0.00 | 93 | 988.7 |
| 20260901143029 | 57 | 192 | 0.0 | 0.0 | 0.00 | 0.00 | 0.00 | 93 | 988.8 |
| 20260901142528 | 57 | 192 | 0.0 | 1.0 | 0.00 | 0.00 | 0.00 | 93 | 988.9 |
| 20260901142028 | 57 | 192 | 0.0 | 2.0 | 0.00 | 0.00 | 0.00 | 93 | 988.8 |
| 20260901141528 | 57 | 192 | 0.0 | 2.0 | 0.00 | 0.00 | 0.00 | 93 | 988.8 |
| 20260901141028 | 57 | 192 | 0.0 | 2.0 | 0.00 | 0.00 | 0.00 | 93 | 988.7 |
| 20260901140526 | 57 | 192 | 0.0 | 3.0 | 0.00 | 0.00 | 0.00 | 93 | 988.7 |
| 20260901140034 | 58 | 192 | 1.0 | 3.0 | 0.00 | 0.00 | 0.00 | 93 | 988.5 |
| 20260901135526 | 58 | 192 | 0.0 | 2.0 | 0.00 | 0.00 | 0.00 | 93 | 988.5 |
| 20260901135026 | 58 | 192 | 0.0 | 2.0 | 0.00 | 0.00 | 0.00 | 93 | 988.5 |
| 20260901134524 | 58 | 192 | 0.0 | 2.0 | 0.00 | 0.00 | 0.00 | 93 | 988.4 |
| 20260901134026 | 58 | 192 | 0.0 | 2.0 | 0.00 | 0.00 | 0.00 | 93 | 988.4 |
| 20260901133523 | 58 | 192 | 0.0 | 3.0 | 0.00 | 0.00 | 0.00 | 93 | 988.3 |
| 20260901133023 | 58 | 192 | 0.0 | 3.0 | 0.00 | 0.00 | 0.00 | 93 | 988.4 |
| 20260901132524 | 58 | 192 | 0.0 | 1.0 | 0.00 | 0.00 | 0.00 | 92 | 988.2 |
| 20260901132024 | 58 | 192 | 0.0 | 1.0 | 0.00 | 0.00 | 0.00 | 92 | 988.2 |
| 20260901131532 | 58 | 192 | 0.0 | 1.0 | 0.00 | 0.00 | 0.00 | 92 | 988.1 |
| 20260901131026 | 58 | 192 | 0.0 | 3.0 | 0.00 | 0.00 | 0.00 | 92 | 988.1 |
| 20260901130525 | 58 | 192 | 0.0 | 3.0 | 0.00 | 0.00 | 0.00 | 92 | 988.0 |
| 20260901130021 | 58 | 192 | 0.0 | 3.0 | 0.00 | 0.00 | 0.00 | 92 | 987.9 |
| 20260901125521 | 57 | 192 | 0.0 | 0.0 | 0.00 | 0.00 | 0.00 | 92 | 987.8 |
| 20260901125021 | 57 | 192 | 0.0 | 1.0 | 0.00 | 0.00 | 0.00 | 92 | 987.9 |
| 20260901124521 | 57 | 192 | 0.0 | 1.0 | 0.00 | 0.00 | 0.00 | 92 | 988.0 |
| 20260901124025 | 57 | 192 | 0.0 | 0.0 | 0.00 | 0.00 | 0.00 | 92 | 988.1 |
| 20260901123523 | 57 | 192 | 0.0 | 0.0 | 0.00 | 0.00 | 0.00 | 92 | 988.1 |
| 20260901123020 | 57 | 192 | 0.0 | 0.0 | 0.00 | 0.00 | 0.00 | 93 | 988.0 |
| 20260901122519 | 57 | 192 | 0.0 | 0.0 | 0.00 | 0.00 | 0.00 | 93 | 988.1 |
| 20260901122019 | 57 | 192 | 0.0 | 0.0 | 0.00 | 0.00 | 0.00 | 93 | 988.1 |
| 20260901121519 | 57 | 192 | 0.0 | 2.0 | 0.00 | 0.00 | 0.00 | 93 | 988.1 |
| 20260901121020 | 57 | 192 | 0.0 | 2.0 | 0.00 | 0.00 | 0.00 | 93 | 988.1 |
| 20260901120519 | 57 | 192 | 0.0 | 0.0 | 0.00 | 0.00 | 0.00 | 93 | 988.0 |
| 20260901120020 | 57 | 192 | 0.0 | 0.0 | 0.00 | 0.00 | 0.00 | 93 | 988.0 |
| 20260901115518 | 57 | 192 | 0.0 | 0.0 | 0.00 | 0.00 | 0.00 | 93 | 988.0 |
| 20260901115019 | 57 | 192 | 0.0 | 0.0 | 0.00 | 0.00 | 0.00 | 93 | 988.1 |
| 20260901114517 | 57 | 192 | 0.0 | 0.0 | 0.00 | 0.00 | 0.00 | 93 | 988.3 |
| 20260901114019 | 57 | 192 | 0.0 | 0.0 | 0.00 | 0.00 | 0.00 | 93 | 988.2 |
| 20260901113521 | 57 | 192 | 0.0 | 0.0 | 0.00 | 0.00 | 0.00 | 93 | 988.3 |
| 20260901113018 | 57 | 192 | 0.0 | 0.0 | 0.00 | 0.00 | 0.00 | 93 | 988.3 |
| 20260901112522 | 57 | 192 | 0.0 | 2.0 | 0.00 | 0.00 | 0.00 | 94 | 988.3 |
| 20260901112016 | 57 | 192 | 0.0 | 2.0 | 0.00 | 0.00 | 0.00 | 94 | 988.3 |
| 20260901111518 | 57 | 192 | 0.0 | 0.0 | 0.00 | 0.00 | 0.00 | 94 | 988.2 |
| 20260901111015 | 56 | 192 | 0.0 | 0.0 | 0.00 | 0.00 | 0.00 | 94 | 988.2 |
| 20260901110515 | 56 | 192 | 0.0 | 0.0 | 0.00 | 0.00 | 0.00 | 93 | 988.1 |
| 20260901110015 | 56 | 192 | 0.0 | 0.0 | 0.00 | 0.00 | 0.00 | 93 | 988.2 |
| 20260901105515 | 56 | 192 | 0.0 | 0.0 | 0.00 | 0.00 | 0.00 | 93 | 988.2 |
| 20260901105018 | 56 | 192 | 0.0 | 0.0 | 0.00 | 0.00 | 0.00 | 93 | 988.1 |
| 20260901104515 | 56 | 192 | 0.0 | 1.0 | 0.00 | 0.00 | 0.00 | 93 | 988.2 |
| 20260901104014 | 56 | 192 | 0.0 | 2.0 | 0.00 | 0.00 | 0.00 | 94 | 988.1 |
| 20260901103515 | 55 | 192 | 0.0 | 3.0 | 0.00 | 0.00 | 0.00 | 93 | 988.1 |
| 20260901103013 | 55 | 192 | 0.0 | 3.0 | 0.00 | 0.00 | 0.00 | 93 | 988.2 |
| 20260901102518 | 55 | 192 | 0.0 | 0.0 | 0.00 | 0.00 | 0.00 | 93 | 988.2 |
| 20260901102013 | 55 | 192 | 0.0 | 0.0 | 0.00 | 0.00 | 0.00 | 92 | 988.1 |
| 20260901101530 | 55 | 192 | 0.0 | 0.0 | 0.00 | 0.00 | 0.00 | 92 | 988.1 |
| 20260901101011 | 55 | 192 | 0.0 | 0.0 | 0.00 | 0.00 | 0.00 | 92 | 988.1 |
| 20260901100510 | 56 | 192 | 0.0 | 0.0 | 0.00 | 0.00 | 0.00 | 93 | 988.0 |
| 20260901100010 | 56 | 192 | 0.0 | 0.0 | 0.00 | 0.00 | 0.00 | 93 | 987.9 |
| 20260901095509 | 56 | 192 | 0.0 | 0.0 | 0.00 | 0.00 | 0.00 | 92 | 987.9 |
| 20260901095009 | 56 | 192 | 0.0 | 0.0 | 0.00 | 0.00 | 0.00 | 92 | 987.9 |
| 20260901094509 | 56 | 192 | 0.0 | 0.0 | 0.00 | 0.00 | 0.00 | 92 | 987.8 |
| 20260901094008 | 56 | 192 | 0.0 | 0.0 | 0.00 | 0.00 | 0.00 | 92 | 987.9 |
| 20260901093507 | 56 | 192 | 0.0 | 0.0 | 0.00 | 0.00 | 0.00 | 92 | 987.9 |
| 20260901093007 | 56 | 192 | 0.0 | 0.0 | 0.00 | 0.00 | 0.00 | 92 | 988.1 |
| 20260901092507 | 56 | 192 | 0.0 | 0.0 | 0.00 | 0.00 | 0.00 | 92 | 987.9 |
| 20260901092007 | 56 | 192 | 0.0 | 0.0 | 0.00 | 0.00 | 0.00 | 92 | 988.0 |
| 20260901091505 | 56 | 192 | 0.0 | 0.0 | 0.00 | 0.00 | 0.00 | 91 | 988.1 |
| 20260901091006 | 56 | 192 | 0.0 | 0.0 | 0.00 | 0.00 | 0.00 | 91 | 988.1 |
| 20260901090508 | 56 | 192 | 0.0 | 0.0 | 0.00 | 0.00 | 0.00 | 91 | 988.2 |
| 20260901090007 | 56 | 192 | 0.0 | 0.0 | 0.00 | 0.00 | 0.00 | 91 | 988.2 |
| 20260901085504 | 57 | 192 | 0.0 | 0.0 | 0.00 | 0.00 | 0.00 | 91 | 988.1 |
| 20260901085004 | 57 | 192 | 0.0 | 0.0 | 0.00 | 0.00 | 0.00 | 91 | 988.3 |
| 20260901084504 | 57 | 192 | 0.0 | 0.0 | 0.00 | 0.00 | 0.00 | 91 | 988.2 |
| 20260901084003 | 57 | 192 | 0.0 | 0.0 | 0.00 | 0.00 | 0.00 | 90 | 988.3 |
| 20260901083502 | 57 | 192 | 0.0 | 0.0 | 0.00 | 0.00 | 0.00 | 90 | 988.3 |
| 20260901083002 | 58 | 192 | 0.0 | 0.0 | 0.00 | 0.00 | 0.00 | 91 | 988.1 |
| 20260901082502 | 58 | 192 | 0.0 | 0.0 | 0.00 | 0.00 | 0.00 | 91 | 988.2 |
| 20260901082002 | 58 | 192 | 0.0 | 0.0 | 0.00 | 0.00 | 0.00 | 91 | 988.3 |
| 20260901081604 | 58 | 192 | 0.0 | 0.0 | 0.00 | 0.00 | 0.00 | 91 | 988.3 |
| 20260901081059 | 58 | 192 | 0.0 | 0.0 | 0.00 | 0.00 | 0.00 | 91 | 988.1 |
| 20260901080559 | 58 | 192 | 0.0 | 0.0 | 0.00 | 0.00 | 0.00 | 91 | 988.1 |
| 20260901080202 | 58 | 192 | 0.0 | 0.0 | 0.00 | 0.00 | 0.00 | 91 | 988.2 |
| 20260901075559 | 58 | 192 | 0.0 | 0.0 | 0.00 | 0.00 | 0.00 | 90 | 988.1 |
| 20260901075057 | 58 | 192 | 0.0 | 0.0 | 0.00 | 0.00 | 0.00 | 90 | 988.1 |
| 20260901074558 | 58 | 192 | 0.0 | 0.0 | 0.00 | 0.00 | 0.00 | 90 | 988.1 |
| 20260901074057 | 58 | 192 | 0.0 | 0.0 | 0.00 | 0.00 | 0.00 | 89 | 988.1 |
| 20260901073557 | 58 | 192 | 0.0 | 0.0 | 0.00 | 0.00 | 0.00 | 89 | 988.0 |
| 20260901073056 | 58 | 192 | 0.0 | 0.0 | 0.00 | 0.00 | 0.00 | 88 | 988.2 |
| 20260901072555 | 58 | 192 | 0.0 | 0.0 | 0.00 | 0.00 | 0.00 | 89 | 988.1 |
| 20260901072058 | 58 | 192 | 0.0 | 0.0 | 0.00 | 0.00 | 0.00 | 89 | 988.0 |
| 20260901071554 | 59 | 192 | 0.0 | 0.0 | 0.00 | 0.00 | 0.00 | 89 | 988.1 |
| 20260901071053 | 59 | 192 | 0.0 | 0.0 | 0.00 | 0.00 | 0.00 | 89 | 988.2 |
| 20260901070552 | 59 | 192 | 0.0 | 0.0 | 0.00 | 0.00 | 0.00 | 88 | 988.1 |
| 20260901065550 | 59 | 192 | 0.0 | 0.0 | 0.00 | 0.00 | 0.00 | 88 | 988.2 |
| 20260901065050 | 59 | 192 | 0.0 | 0.0 | 0.00 | 0.00 | 0.00 | 87 | 988.2 |
| 20260901064559 | 59 | 192 | 0.0 | 0.0 | 0.00 | 0.00 | 0.00 | 87 | 988.2 |
| 20260901064049 | 60 | 192 | 0.0 | 0.0 | 0.00 | 0.00 | 0.00 | 87 | 988.1 |
| 20260901063548 | 60 | 192 | 0.0 | 0.0 | 0.00 | 0.00 | 0.00 | 88 | 988.1 |
| 20260901063057 | 60 | 192 | 0.0 | 0.0 | 0.00 | 0.00 | 0.00 | 88 | 988.1 |
| 20260901062550 | 60 | 192 | 0.0 | 0.0 | 0.00 | 0.00 | 0.00 | 88 | 988.0 |
| 20260901062047 | 60 | 192 | 0.0 | 0.0 | 0.00 | 0.00 | 0.00 | 88 | 988.0 |
| 20260901061600 | 60 | 192 | 0.0 | 0.0 | 0.00 | 0.00 | 0.00 | 88 | 987.8 |
| 20260901061046 | 60 | 192 | 0.0 | 0.0 | 0.00 | 0.00 | 0.00 | 88 | 987.8 |
| 20260901060550 | 60 | 192 | 0.0 | 0.0 | 0.00 | 0.00 | 0.00 | 88 | 987.8 |
| 20260901060045 | 60 | 192 | 0.0 | 0.0 | 0.00 | 0.00 | 0.00 | 87 | 987.8 |
| 20260901055545 | 60 | 192 | 0.0 | 0.0 | 0.00 | 0.00 | 0.00 | 87 | 987.8 |
| 20260901055045 | 61 | 192 | 0.0 | 0.0 | 0.00 | 0.00 | 0.00 | 87 | 987.7 |
| 20260901054550 | 61 | 192 | 0.0 | 0.0 | 0.00 | 0.00 | 0.00 | 87 | 987.7 |
| 20260901054045 | 61 | 192 | 0.0 | 0.0 | 0.00 | 0.00 | 0.00 | 88 | 987.6 |
| 20260901053548 | 61 | 192 | 0.0 | 0.0 | 0.00 | 0.00 | 0.00 | 88 | 987.5 |
| 20260901053044 | 61 | 192 | 0.0 | 0.0 | 0.00 | 0.00 | 0.00 | 87 | 987.5 |
| 20260901052544 | 61 | 192 | 0.0 | 0.0 | 0.00 | 0.00 | 0.00 | 87 | 987.3 |
| 20260901052044 | 61 | 192 | 0.0 | 0.0 | 0.00 | 0.00 | 0.00 | 87 | 987.4 |
| 20260901051545 | 61 | 192 | 0.0 | 0.0 | 0.00 | 0.00 | 0.00 | 87 | 987.4 |
| 20260901051044 | 62 | 192 | 0.0 | 0.0 | 0.00 | 0.00 | 0.00 | 86 | 987.4 |
| 20260901050543 | 62 | 192 | 0.0 | 0.0 | 0.00 | 0.00 | 0.00 | 86 | 987.4 |
| 20260901050044 | 62 | 192 | 0.0 | 0.0 | 0.00 | 0.00 | 0.00 | 86 | 987.4 |
| 20260901045543 | 62 | 192 | 0.0 | 0.0 | 0.00 | 0.00 | 0.00 | 86 | 987.5 |
| 20260901045043 | 63 | 192 | 0.0 | 0.0 | 0.00 | 0.00 | 0.00 | 86 | 987.6 |
| 20260901044559 | 63 | 192 | 0.0 | 0.0 | 0.00 | 0.00 | 0.00 | 86 | 987.5 |
| 20260901044043 | 63 | 192 | 0.0 | 0.0 | 0.00 | 0.00 | 0.00 | 85 | 987.6 |
| 20260901043545 | 63 | 192 | 0.0 | 0.0 | 0.00 | 0.00 | 0.00 | 85 | 987.6 |
| 20260901043044 | 63 | 192 | 0.0 | 0.0 | 0.00 | 0.00 | 0.00 | 85 | 987.5 |
| 20260901042542 | 63 | 192 | 0.0 | 0.0 | 0.00 | 0.00 | 0.00 | 85 | 987.6 |
| 20260901042042 | 64 | 192 | 0.0 | 2.0 | 0.00 | 0.00 | 0.00 | 84 | 987.5 |
| 20260901041543 | 64 | 192 | 0.0 | 3.0 | 0.00 | 0.00 | 0.00 | 84 | 987.5 |
| 20260901041042 | 64 | 192 | 1.0 | 3.0 | 0.00 | 0.00 | 0.00 | 84 | 987.5 |
| 20260901040542 | 64 | 192 | 0.0 | 2.0 | 0.00 | 0.00 | 0.00 | 84 | 987.4 |
| 20260901040054 | 64 | 192 | 0.0 | 2.0 | 0.00 | 0.00 | 0.00 | 83 | 987.3 |
| 20260901035545 | 64 | 192 | 0.0 | 0.0 | 0.00 | 0.00 | 0.00 | 83 | 987.1 |
| 20260901035041 | 64 | 192 | 0.0 | 0.0 | 0.00 | 0.00 | 0.00 | 82 | 987.2 |
| 20260901034541 | 65 | 192 | 0.0 | 2.0 | 0.00 | 0.00 | 0.00 | 82 | 987.1 |
| 20260901034041 | 65 | 192 | 0.0 | 5.0 | 0.00 | 0.00 | 0.00 | 82 | 986.9 |
| 20260901033541 | 65 | 192 | 3.0 | 5.0 | 0.00 | 0.00 | 0.00 | 82 | 986.9 |
| 20260901033041 | 65 | 194 | 0.0 | 0.0 | 0.00 | 0.00 | 0.00 | 81 | 986.9 |
| 20260901032544 | 66 | 194 | 0.0 | 0.0 | 0.00 | 0.00 | 0.00 | 80 | 986.7 |
| 20260901032041 | 66 | 194 | 0.0 | 0.0 | 0.00 | 0.00 | 0.00 | 80 | 986.7 |
| 20260901031540 | 66 | 194 | 0.0 | 0.0 | 0.00 | 0.00 | 0.00 | 79 | 986.6 |
| 20260901031039 | 66 | 194 | 0.0 | 0.0 | 0.00 | 0.00 | 0.00 | 79 | 986.7 |
| 20260901030539 | 66 | 194 | 0.0 | 1.0 | 0.00 | 0.00 | 0.00 | 79 | 986.7 |
| 20260901030040 | 67 | 194 | 0.0 | 2.0 | 0.00 | 0.00 | 0.00 | 79 | 986.7 |
| 20260901025539 | 67 | 194 | 0.0 | 3.0 | 0.00 | 0.00 | 0.00 | 78 | 986.8 |
| 20260901025039 | 67 | 194 | 1.0 | 4.0 | 0.00 | 0.00 | 0.00 | 78 | 986.8 |
| 20260901024547 | 67 | 194 | 1.0 | 3.0 | 0.00 | 0.00 | 0.00 | 77 | 986.6 |
| 20260901024038 | 68 | 194 | 1.0 | 3.0 | 0.00 | 0.00 | 0.00 | 77 | 986.5 |
| 20260901023538 | 68 | 194 | 1.0 | 2.0 | 0.00 | 0.00 | 0.00 | 77 | 986.6 |
| 20260901023041 | 68 | 194 | 0.0 | 4.0 | 0.00 | 0.00 | 0.00 | 76 | 986.5 |
| 20260901022539 | 69 | 194 | 1.0 | 4.0 | 0.00 | 0.00 | 0.00 | 76 | 986.5 |
| 20260901022039 | 69 | 194 | 2.0 | 4.0 | 0.00 | 0.00 | 0.00 | 75 | 986.4 |
| 20260901021557 | 69 | 194 | 3.0 | 5.0 | 0.00 | 0.00 | 0.00 | 75 | 986.5 |
| 20260901021038 | 70 | 193 | 2.0 | 6.0 | 0.00 | 0.00 | 0.00 | 74 | 986.4 |
| 20260901020538 | 70 | 195 | 3.0 | 6.0 | 0.00 | 0.00 | 0.00 | 73 | 986.3 |
| 20260901020039 | 71 | 184 | 3.0 | 6.0 | 0.00 | 0.00 | 0.00 | 71 | 986.3 |
| 20260901015537 | 71 | 188 | 2.0 | 5.0 | 0.00 | 0.00 | 0.00 | 70 | 986.3 |
| 20260901015037 | 71 | 190 | 1.0 | 4.0 | 0.00 | 0.00 | 0.00 | 70 | 986.3 |
| 20260901014539 | 72 | 190 | 2.0 | 4.0 | 0.00 | 0.00 | 0.00 | 69 | 986.3 |
| 20260901014038 | 72 | 190 | 2.0 | 4.0 | 0.00 | 0.00 | 0.00 | 69 | 986.4 |
| 20260901013538 | 72 | 190 | 2.0 | 6.0 | 0.00 | 0.00 | 0.00 | 69 | 986.5 |
| 20260901013037 | 72 | 190 | 2.0 | 6.0 | 0.00 | 0.00 | 0.00 | 69 | 986.4 |
| 20260901012539 | 73 | 200 | 3.0 | 6.0 | 0.00 | 0.00 | 0.00 | 69 | 986.6 |
| 20260901012041 | 73 | 184 | 4.0 | 7.0 | 0.00 | 0.00 | 0.00 | 67 | 986.5 |
| 20260901011536 | 74 | 179 | 2.0 | 7.0 | 0.00 | 0.00 | 0.00 | 67 | 986.5 |
| 20260901011036 | 74 | 186 | 3.0 | 5.0 | 0.00 | 0.00 | 0.00 | 66 | 986.5 |
| 20260901010539 | 74 | 197 | 2.0 | 6.0 | 0.00 | 0.00 | 0.00 | 66 | 986.3 |
| 20260901010039 | 75 | 225 | 3.0 | 7.0 | 0.00 | 0.00 | 0.00 | 67 | 986.3 |
| 20260901005535 | 75 | 200 | 3.0 | 7.0 | 0.00 | 0.00 | 0.00 | 66 | 986.3 |
| 20260901005135 | 75 | 194 | 4.0 | 10.0 | 0.00 | 0.00 | 0.00 | 66 | 986.3 |
| 20260901004534 | 76 | 225 | 4.0 | 10.0 | 0.00 | 0.00 | 0.00 | 64 | 986.3 |
| 20260901004034 | 77 | 197 | 4.0 | 8.0 | 0.00 | 0.00 | 0.00 | 63 | 986.2 |
| 20260901003537 | 77 | 182 | 4.0 | 10.0 | 0.00 | 0.00 | 0.00 | 62 | 986.2 |
| 20260901003038 | 77 | 165 | 5.0 | 8.0 | 0.00 | 0.00 | 0.00 | 61 | 986.2 |
| 20260901002534 | 78 | 172 | 5.0 | 10.0 | 0.00 | 0.00 | 0.00 | 60 | 986.2 |
| 20260901002034 | 78 | 146 | 4.0 | 10.0 | 0.00 | 0.00 | 0.00 | 60 | 986.2 |
| 20260901001538 | 78 | 178 | 5.0 | 10.0 | 0.00 | 0.00 | 0.00 | 59 | 986.2 |
| 20260901001034 | 79 | 171 | 5.0 | 10.0 | 0.00 | 0.00 | 0.00 | 59 | 986.2 |
| 20260901000532 | 80 | 157 | 6.0 | 10.0 | 0.00 | 0.00 | 0.00 | 58 | 986.3 |
| 20260901000037 | 80 | 178 | 4.0 | 7.0 | 0.00 | 0.00 | 0.00 | 56 | 986.2 |
| 20260831235532 | 81 | 198 | 4.0 | 7.0 | 0.00 | 0.00 | 0.00 | 56 | 986.2 |
| 20260831235034 | 80 | 186 | 4.0 | 8.0 | 0.00 | 0.00 | 0.00 | 56 | 986.2 |
| 20260831234534 | 81 | 206 | 4.0 | 10.0 | 0.00 | 0.00 | 0.00 | 56 | 986.3 |
| 20260831234032 | 81 | 199 | 5.0 | 10.0 | 0.00 | 0.00 | 0.00 | 57 | 986.2 |
| 20260831233531 | 81 | 190 | 5.0 | 11.0 | 0.00 | 0.00 | 0.00 | 56 | 986.4 |
| 20260831233031 | 81 | 204 | 5.0 | 10.0 | 0.00 | 0.00 | 0.00 | 55 | 986.3 |
| 20260831232535 | 81 | 202 | 4.0 | 10.0 | 0.00 | 0.00 | 0.00 | 55 | 986.3 |
| 20260831232034 | 81 | 201 | 4.0 | 9.0 | 0.00 | 0.00 | 0.00 | 55 | 986.2 |
| 20260831231550 | 81 | 165 | 4.0 | 15.0 | 0.00 | 0.00 | 0.00 | 56 | 986.2 |
| 20260831231032 | 81 | 135 | 6.0 | 11.0 | 0.00 | 0.00 | 0.00 | 55 | 986.2 |
| 20260831230531 | 82 | 144 | 7.0 | 10.0 | 0.00 | 0.00 | 0.00 | 54 | 986.1 |
| 20260831230033 | 82 | 159 | 6.0 | 10.0 | 0.00 | 0.00 | 0.00 | 54 | 986.1 |
| 20260831225530 | 82 | 143 | 3.0 | 10.0 | 0.00 | 0.00 | 0.00 | 54 | 986.0 |
| 20260831225031 | 82 | 148 | 3.0 | 11.0 | 0.00 | 0.00 | 0.00 | 54 | 986.2 |
| 20260831224548 | 82 | 176 | 6.0 | 11.0 | 0.00 | 0.00 | 0.00 | 54 | 986.3 |
| 20260831224030 | 82 | 175 | 6.0 | 11.0 | 0.00 | 0.00 | 0.00 | 53 | 986.4 |
| 20260831223530 | 83 | 139 | 5.0 | 11.0 | 0.00 | 0.00 | 0.00 | 51 | 986.4 |
| 20260831223030 | 83 | 154 | 4.0 | 8.0 | 0.00 | 0.00 | 0.00 | 53 | 986.4 |
| 20260831222530 | 83 | 150 | 5.0 | 10.0 | 0.00 | 0.00 | 0.00 | 52 | 986.6 |
| 20260831222029 | 83 | 150 | 4.0 | 10.0 | 0.00 | 0.00 | 0.00 | 54 | 986.6 |
| 20260831221530 | 82 | 155 | 5.0 | 9.0 | 0.00 | 0.00 | 0.00 | 54 | 986.7 |
| 20260831221029 | 83 | 221 | 3.0 | 7.0 | 0.00 | 0.00 | 0.00 | 53 | 986.6 |
| 20260831220528 | 83 | 175 | 4.0 | 11.0 | 0.00 | 0.00 | 0.00 | 53 | 986.7 |
| 20260831220028 | 83 | 211 | 5.0 | 11.0 | 0.00 | 0.00 | 0.00 | 55 | 986.8 |
| 20260831215528 | 83 | 161 | 5.0 | 9.0 | 0.00 | 0.00 | 0.00 | 54 | 986.8 |
| 20260831215028 | 82 | 209 | 4.0 | 9.0 | 0.00 | 0.00 | 0.00 | 54 | 986.9 |
| 20260831214534 | 82 | 213 | 7.0 | 9.0 | 0.00 | 0.00 | 0.00 | 54 | 986.8 |
| 20260831214033 | 83 | 207 | 6.0 | 10.0 | 0.00 | 0.00 | 0.00 | 55 | 986.9 |
| 20260831213528 | 83 | 173 | 7.0 | 12.0 | 0.00 | 0.00 | 0.00 | 56 | 986.9 |
| 20260831213027 | 83 | 188 | 7.0 | 12.0 | 0.00 | 0.00 | 0.00 | 55 | 987.1 |
| 20260831212527 | 83 | 175 | 5.0 | 11.0 | 0.00 | 0.00 | 0.00 | 55 | 987.1 |
| 20260831212029 | 83 | 173 | 5.0 | 11.0 | 0.00 | 0.00 | 0.00 | 56 | 987.1 |
| 20260831211525 | 82 | 148 | 7.0 | 14.0 | 0.00 | 0.00 | 0.00 | 56 | 987.0 |
| 20260831211024 | 82 | 173 | 6.0 | 14.0 | 0.00 | 0.00 | 0.00 | 55 | 986.9 |
| 20260831210524 | 81 | 147 | 6.0 | 10.0 | 0.00 | 0.00 | 0.00 | 55 | 986.9 |
| 20260831210028 | 81 | 138 | 5.0 | 10.0 | 0.00 | 0.00 | 0.00 | 57 | 986.9 |
| 20260831205525 | 81 | 121 | 6.0 | 10.0 | 0.00 | 0.00 | 0.00 | 56 | 987.0 |
| 20260831205024 | 82 | 175 | 6.0 | 10.0 | 0.00 | 0.00 | 0.00 | 55 | 987.1 |
| 20260831204530 | 82 | 172 | 5.0 | 12.0 | 0.00 | 0.00 | 0.00 | 56 | 987.1 |
| 20260831204025 | 82 | 138 | 7.0 | 12.0 | 0.00 | 0.00 | 0.00 | 54 | 987.1 |
| 20260831203524 | 82 | 169 | 6.0 | 13.0 | 0.00 | 0.00 | 0.00 | 55 | 987.1 |
| 20260831203033 | 82 | 171 | 6.0 | 10.0 | 0.00 | 0.00 | 0.00 | 55 | 987.1 |
| 20260831202523 | 82 | 150 | 5.0 | 10.0 | 0.00 | 0.00 | 0.00 | 55 | 987.1 |
| 20260831202023 | 82 | 155 | 6.0 | 11.0 | 0.00 | 0.00 | 0.00 | 57 | 987.2 |
| 20260831201523 | 82 | 147 | 4.0 | 12.0 | 0.00 | 0.00 | 0.00 | 56 | 987.2 |
| 20260831201022 | 82 | 158 | 7.0 | 12.0 | 0.00 | 0.00 | 0.00 | 56 | 987.2 |
| 20260831200521 | 82 | 175 | 6.0 | 12.0 | 0.00 | 0.00 | 0.00 | 57 | 987.2 |
| 20260831200023 | 82 | 148 | 6.0 | 11.0 | 0.00 | 0.00 | 0.00 | 57 | 987.2 |
| 20260831195521 | 82 | 144 | 5.0 | 11.0 | 0.00 | 0.00 | 0.00 | 56 | 987.4 |
| 20260831195027 | 82 | 156 | 5.0 | 9.0 | 0.00 | 0.00 | 0.00 | 56 | 987.3 |
| 20260831194520 | 82 | 166 | 4.0 | 10.0 | 0.00 | 0.00 | 0.00 | 58 | 987.3 |
| 20260831194024 | 82 | 182 | 6.0 | 12.0 | 0.00 | 0.00 | 0.00 | 57 | 987.4 |
| 20260831193519 | 81 | 132 | 7.0 | 12.0 | 0.00 | 0.00 | 0.00 | 58 | 987.3 |
| 20260831193019 | 81 | 211 | 6.0 | 12.0 | 0.00 | 0.00 | 0.00 | 59 | 987.3 |
| 20260831192519 | 81 | 157 | 5.0 | 12.0 | 0.00 | 0.00 | 0.00 | 58 | 987.3 |
| 20260831192022 | 81 | 205 | 5.0 | 8.0 | 0.00 | 0.00 | 0.00 | 59 | 987.5 |
| 20260831191535 | 81 | 183 | 4.0 | 9.0 | 0.00 | 0.00 | 0.00 | 58 | 987.5 |
| 20260831191017 | 81 | 177 | 4.0 | 9.0 | 0.00 | 0.00 | 0.00 | 60 | 987.5 |
| 20260831190516 | 81 | 184 | 4.0 | 9.0 | 0.00 | 0.00 | 0.00 | 58 | 987.6 |
| 20260831190015 | 82 | 161 | 4.0 | 8.0 | 0.00 | 0.00 | 0.00 | 58 | 987.5 |
| 20260831185514 | 81 | 209 | 3.0 | 9.0 | 0.00 | 0.00 | 0.00 | 58 | 987.6 |
| 20260831185014 | 81 | 188 | 3.0 | 9.0 | 0.00 | 0.00 | 0.00 | 58 | 987.6 |
| 20260831184514 | 81 | 170 | 5.0 | 9.0 | 0.00 | 0.00 | 0.00 | 59 | 987.6 |
| 20260831184011 | 81 | 204 | 3.0 | 8.0 | 0.00 | 0.00 | 0.00 | 58 | 987.7 |
| 20260831183511 | 81 | 208 | 5.0 | 8.0 | 0.00 | 0.00 | 0.00 | 58 | 987.6 |
| 20260831183019 | 81 | 142 | 3.0 | 8.0 | 0.00 | 0.00 | 0.00 | 58 | 987.6 |
| 20260831182509 | 81 | 143 | 3.0 | 8.0 | 0.00 | 0.00 | 0.00 | 60 | 987.7 |
| 20260831182008 | 81 | 157 | 3.0 | 7.0 | 0.00 | 0.00 | 0.00 | 60 | 987.7 |
| 20260831181507 | 80 | 200 | 3.0 | 8.0 | 0.00 | 0.00 | 0.00 | 60 | 987.7 |
| 20260831181005 | 80 | 190 | 4.0 | 8.0 | 0.00 | 0.00 | 0.00 | 60 | 987.7 |
| 20260831180503 | 80 | 169 | 4.0 | 7.0 | 0.00 | 0.00 | 0.00 | 61 | 987.7 |
| 20260831180002 | 79 | 153 | 4.0 | 8.0 | 0.00 | 0.00 | 0.00 | 62 | 987.7 |
| 20260831175501 | 79 | 161 | 4.0 | 8.0 | 0.00 | 0.00 | 0.00 | 61 | 987.6 |
| 20260831175100 | 78 | 200 | 2.0 | 6.0 | 0.00 | 0.00 | 0.00 | 63 | 987.6 |
| 20260831174600 | 79 | 201 | 4.0 | 7.0 | 0.00 | 0.00 | 0.00 | 62 | 987.6 |
| 20260831174058 | 79 | 173 | 4.0 | 7.0 | 0.00 | 0.00 | 0.00 | 63 | 987.6 |
| 20260831173559 | 78 | 140 | 0.0 | 9.0 | 0.00 | 0.00 | 0.00 | 65 | 987.6 |
| 20260831173056 | 78 | 188 | 5.0 | 9.0 | 0.00 | 0.00 | 0.00 | 64 | 987.6 |
| 20260831172558 | 77 | 192 | 1.0 | 5.0 | 0.00 | 0.00 | 0.00 | 66 | 987.5 |
| 20260831172052 | 77 | 182 | 2.0 | 6.0 | 0.00 | 0.00 | 0.00 | 65 | 987.5 |
| 20260831171551 | 76 | 173 | 3.0 | 7.0 | 0.00 | 0.00 | 0.00 | 66 | 987.5 |
| 20260831171050 | 76 | 201 | 3.0 | 8.0 | 0.00 | 0.00 | 0.00 | 67 | 987.4 |
| 20260831170548 | 76 | 185 | 3.0 | 8.0 | 0.00 | 0.00 | 0.00 | 68 | 987.4 |
| 20260831170047 | 76 | 176 | 3.0 | 6.0 | 0.00 | 0.00 | 0.00 | 69 | 987.4 |
| 20260831165545 | 76 | 176 | 1.0 | 6.0 | 0.00 | 0.00 | 0.00 | 70 | 987.3 |
| 20260831165044 | 76 | 182 | 2.0 | 4.0 | 0.00 | 0.00 | 0.00 | 70 | 987.3 |
| 20260831164542 | 75 | 182 | 1.0 | 4.0 | 0.00 | 0.00 | 0.00 | 71 | 987.2 |
| 20260831164041 | 74 | 182 | 0.0 | 4.0 | 0.00 | 0.00 | 0.00 | 72 | 987.2 |
| 20260831163540 | 74 | 182 | 2.0 | 4.0 | 0.00 | 0.00 | 0.00 | 72 | 987.2 |
| 20260831163041 | 74 | 182 | 1.0 | 3.0 | 0.00 | 0.00 | 0.00 | 75 | 987.2 |
| 20260831162539 | 73 | 182 | 0.0 | 4.0 | 0.00 | 0.00 | 0.00 | 76 | 987.3 |
| 20260831162037 | 72 | 182 | 1.0 | 3.0 | 0.00 | 0.00 | 0.00 | 77 | 987.3 |